Location: Bismarck
(46.7731°N, 100.8200°W)
Time: 18:05:30
(UTC-05:00)

Daily predictions for brighter satellites

Satellite Brightness Start Highest point End
(mag) Time Altitude Azimuth Time Altitude Azimuth Time Altitude Azimuth
Envisat 3.1 21:48:13 10° SSE 21:53:14 64° ENE 21:58:17 10° N
Cosmos 1975 Rocket 3.9 21:51:55 10° N 21:55:52 33° ENE 21:59:47 10° SE
NOSS 2-2 (E) 3.9 21:52:18 10° SW 21:56:33 78° NW 22:01:45 10° NE
Cosmos 1624 Rocket 4.3 21:52:30 10° SSW 21:57:47 77° WNW 22:03:09 10° NNE
Cosmos 1939 Rocket 2.8 21:55:34 10° SSE 21:59:26 80° ENE 22:03:24 10° N
Cosmos 2341 Rocket 4.4 21:56:57 10° SSE 22:02:55 46° E 22:08:51 10° NNE
Cosmos 2084 3.7 22:03:46 10° S 22:07:19 36° ESE 22:10:52 10° NE
Cosmos 1378 Rocket 3.6 22:03:37 10° N 22:07:55 66° E 22:12:13 10° SSE
ATLAS 5 CENTAUR R/B 3.8 22:02:46 10° NW 22:08:05 33° WSW 22:13:43 10° S
Cosmos 407 Rocket 4.0 22:03:05 10° NNW 22:08:19 64° WSW 22:13:34 10° S
Cosmos 1908 Rocket 3.6 22:04:13 10° S 22:08:34 62° E 22:12:58 10° NNE
Elektron 3 4.0 22:06:56 10° NW 22:09:46 66° NE 22:13:13 11° SE
ARGOS 4.0 22:05:32 10° SE 22:10:23 36° ENE 22:15:15 10° N
Cosmos 1733 Rocket 3.8 22:06:17 10° SSW 22:10:38 58° WNW 22:14:59 10° N
ERS-1 Rocket 3.4 22:05:40 10° S 22:10:40 63° WSW 22:15:42 10° NNW
deb Chang Zheng 4 3.6 22:08:32 10° NNE 22:12:57 66° ESE 22:17:22 10° S
Timation 2 Rocket 4.1 22:07:41 10° NNW 22:13:39 60° ENE 22:19:21 11° SE
Cosmos 1140 Rocket 3.7 22:09:02 10° NNW 22:14:08 60° ENE 22:19:08 10° SE
H-2A R/B 3.5 22:13:27 10° ESE 22:17:40 24° ENE 22:21:49 10° N
NOSS 5 (C) 4.3 22:17:00 10° SSW 22:20:15 52° SE 22:23:18 10° NE
Cosmos 1242 Rocket 3.0 22:18:05 10° N 22:21:37 45° ENE 22:24:43 13° SSE
YAOGAN 6 2.8 22:18:38 11° SSE 22:21:52 51° ENE 22:25:19 10° N
Cosmos 1452 Rocket 3.5 22:16:39 10° SSW 22:21:53 72° ESE 22:27:10 10° NNE
Cosmos 1408 2.6 22:20:02 10° S 22:23:39 64° E 22:27:16 10° NNE
USA 245 3.8 22:21:41 13° SE 22:24:30 43° ENE 22:28:33 10° N
Nimbus 7 Rocket 4.4 22:18:48 10° NNE 22:24:45 72° ESE 22:30:43 10° S
CZ-4 SHROUD 3.2 22:23:22 12° SSE 22:26:09 65° ENE 22:29:14 10° N
CZ-4B R/B 4.1 22:22:17 10° NNE 22:26:47 34° E 22:31:08 10° SSE
Cosmos 1825 2.1 22:24:37 10° S 22:28:25 75° E 22:32:16 10° NNE
Cosmos 1833 Rocket 3.5 22:23:53 10° NNW 22:29:09 39° NE 22:33:42 13° ESE
Cosmos 2154 Rocket 4.0 22:23:05 10° S 22:29:18 89° E 22:35:32 10° N
PSLV R/B 3.0 22:28:00 13° SSE 22:30:37 81° ENE 22:33:35 10° N
SPOT 1/Viking Rocket 3.7 22:28:02 12° SSE 22:32:48 61° ENE 22:37:58 10° N
Cosmos 2278 Rocket 2.2 22:28:06 10° SSW 22:33:43 67° ESE 22:39:22 10° NNE
Cosmos 1844 Rocket 3.3 22:31:05 10° SW 22:36:42 63° WNW 22:42:19 10° NNE
Cosmos 1184 Rocket 2.7 22:33:35 10° S 22:36:55 76° E 22:40:16 10° NNE
H-2A R/B 2.9 22:33:52 10° S 22:38:01 47° W 22:42:07 10° NNW
Cosmos 1844 3.9 22:32:55 10° SSW 22:38:42 80° WNW 22:44:33 10° NNE
MetOp-A 4.2 22:34:18 10° SSE 22:39:39 83° WSW 22:45:02 10° NNW
SL-8 R/B 3.8 22:38:01 10° W 22:42:51 81° NNW 22:47:41 10° ENE
CZ-3C R/B 4.5 22:39:19 10° SW 22:45:40 12° SSW 22:49:33 10° S
Meteor 1-14 Rocket 4.5 22:41:16 10° SSE 22:46:40 50° E 22:52:03 10° NNE
Cosmos 1812 4.1 22:46:34 10° NNE 22:49:48 24° ENE 22:51:28 18° ESE
ISS -3.3 22:46:40 10° SW 22:49:51 54° SSE 22:53:03 10° ENE
Cosmos 2082 Rocket 2.3 22:45:03 10° NNW 22:50:46 67° ENE 22:54:52 19° SE
Cosmos 1850 Rocket 4.0 22:46:14 10° NNW 22:51:35 89° W 22:55:44 17° SSE
Cosmos 1238 Rocket 3.7 22:50:54 10° NNW 22:53:55 38° W 22:57:21 10° SSW
Terra 2.7 22:52:21 19° ESE 22:55:13 37° ENE 22:59:35 10° N
Intercosmos 25 2.8 22:52:28 13° S 22:55:33 76° E 22:58:43 10° NNE
Cosmos 2366 rocket 4.2 22:51:57 14° SSE 22:57:12 52° E 23:03:20 10° NNE
Cosmos 1862 4.5 22:53:21 10° SSW 22:57:16 45° WNW 23:01:13 10° N
SL-08 RB Rocket 3.7 22:55:26 19° SSE 22:58:43 75° ENE 23:03:22 10° N
SPOT 5 3.9 22:55:41 10° S 23:00:47 48° W 23:05:59 10° NNW
Okean 2 Rocket 3.5 23:03:43 10° SSW 23:08:06 64° W 23:12:30 10° N
Cosmos 2297 3.7 23:03:15 10° SSW 23:08:53 66° ESE 23:14:35 10° NNE
Cosmos 1741 Rocket 4.3 23:06:47 10° NNW 23:11:58 63° WSW 23:15:37 19° S
USA 229 DEB 3.8 23:04:50 10° NW 23:11:59 90° ENE 23:16:52 23° SE
USA 229 3.8 23:04:57 10° NW 23:12:06 89° ENE 23:16:58 23° SE
NOSS 1 (D) 4.5 23:10:18 10° NW 23:13:26 84° NE 23:14:21 42° SE
Lacrosse 5 3.9 23:17:36 11° E 23:17:36 11° E 23:18:06 10° E
NOAA 11 4.4 23:12:15 17° S 23:16:31 70° WSW 23:22:02 10° NNW
Gbstr 26 Del rocket 3.4 23:14:42 10° WNW 23:19:56 68° NNE 23:22:46 21° E
CZ-4C R/B 3.3 23:19:47 31° SSE 23:21:37 83° ENE 23:25:47 10° NNW
ASTEX 1 4.1 23:18:33 10° NNE 23:23:08 36° E 23:24:51 28° SE
AVUM R/B 3.3 23:20:59 10° NNW 23:24:31 77° ENE 23:25:32 43° SE
Cosmos 2218 Rocket 4.1 23:18:41 11° S 23:24:50 88° W 23:31:18 10° N
BREEZE-M DEB (TANK) 4.0 23:22:47 10° W 23:26:07 69° N 23:36:44 10° E
Cosmos 1110 Rocket 4.2 23:28:13 28° SSE 23:30:40 49° ESE 23:35:41 10° NNE
DELTA 2 DEB (DPAF) 4.2 23:29:45 28° S 23:32:03 76° WSW 23:36:33 10° NNW
Cosmos 1400 Rocket 4.5 23:35:35 20° E 23:35:35 20° E 23:38:36 10° NE
Cosmos 1727 Rocket 4.0 23:30:37 10° N 23:36:48 80° W 23:40:46 24° S
APEX 4.2 23:33:26 10° SW 23:37:30 61° WNW 23:42:54 10° NNE
CARTOSAT-1 3.5 23:35:50 35° SSE 23:37:38 88° W 23:41:59 10° NNW
Cosmos 2369 Rocket 3.7 23:42:13 18° E 23:42:15 18° E 23:45:57 10° ENE
Cosmos 1536 Rocket 4.1 23:42:15 10° NNW 23:46:39 54° W 23:48:51 27° SSW
Meteor 2-19 Rocket 4.4 23:44:09 22° S 23:48:18 90° SE 23:54:27 10° N
CZ-4 R/B 4.4 23:45:32 10° N 23:50:06 54° WNW 23:53:59 14° SW
ARGOS 4.4 23:46:45 15° SSW 23:50:37 35° W 23:55:31 10° NNW
ATLAS 2AS CENTAUR R/B 4.3 23:43:23 10° NW 23:50:50 36° NNE 23:58:02 10° E
Cosmos 1486 Rocket 4.0 23:48:02 10° NNW 23:53:24 75° ENE 23:55:27 38° SE
